Regional Weather Roundup
Issued by NWS

Home | Current Version | Previous Version | Text Only | Print | Product List | Glossary Off
Versions: 1 2 3 4 5 6 7 8 9 10 11 12 13 14 15 16 17 18 19 20 21 22 23 24 25 26 27 28 29 30 31 32 33 34 35 36 37 38 39 40 41 42 43 44 45 46 47 48 49 50

000
ASUS43 KLOT 282308
RWRIL

ILLINOIS REGIONAL WEATHER ROUNDUP
NATIONAL WEATHER SERVICE CHICAGO/ROMEOVILLE IL
600 PM CDT WED SEP 28 2016

NOTE: "FAIR" INDICATES FEW OR NO CLOUDS BELOW 12,000 FEET WITH NO
SIGNIFICANT WEATHER AND/OR OBSTRUCTIONS TO VISIBILITY.

* THESE STATIONS ARE NOT UNDER NWS QUALITY CONTROL. THEY ALSO MAY NOT
  REPORT WEATHER SUCH AS PRECIPITATION OR FOG.

ILZ001-002-007-009-015-016-024-290000-
NORTHWEST ILLINOIS

CITY           SKY/WX    TMP DP  RH WIND       PRES   REMARKS
MOLINE         CLOUDY    61  49  64 N12G22    30.10R
STERLING*      CLEAR     59  53  80 N8        30.09R
SAVANNA*       MOCLDY    57  53  85 N9        30.11R
$$

ILZ003-004-008-010-011-017-018-290000-
NORTH CENTRAL ILLINOIS

CITY           SKY/WX    TMP DP  RH WIND       PRES   REMARKS
ROCKFORD       PTCLDY    62  51  67 N8        30.10R
FREEPORT*      PTCLDY    58  50  74 N7        30.12R
ROCHELLE*      MOCLDY    62  49  61 N13       30.07R
DE KALB*       CLOUDY    60  47  62 N9        30.07R
$$

ILZ005-006-012>014-019>023-290000-
NORTHEAST ILLINOIS

CITY           SKY/WX    TMP DP  RH WIND       PRES   REMARKS
CHICAGO-OHARE  LGT RAIN  59  49  69 N15       30.02R
CHICAGO-MIDWAY RAIN      59  51  75 N12       30.00R
AURORA         CLOUDY    62  47  57 N17       30.05R
LANSING*       CLOUDY    57  54  91 NW7       30.00R
JOLIET*        CLOUDY    57  55  94 CALM      30.03S
WAUKEGAN       PTCLDY    59  48  67 N12G21    30.04R
DUPAGE AIRPORT LGT RAIN  60  46  59 N23G29    30.03R
KANKAKEE*      CLOUDY    56  52  85 NW10      30.01R
WHEELING       CLOUDY    59  50  72 N14G22    30.04R
MORRIS*        LGT RAIN  55  53  92 CALM      30.03R
ROMEOVILLE*    LGT RAIN  55  55  97 N7        30.02S
NORTHERLY ISL    N/A     59  52  77 N16         N/A
$$

LMZ740>746-290000-
SOUTHERN LAKE MICHIGAN

STATION/POSITION SKY/WX   TEMP    WIND        PRES    VSBY  WAVE
                          AIR SEA DIR/SP/G                  HT/PER
                          (F)     (DEG/KT/KT) (MB)    (MI)  (FT/S)
SOUTHERN BUOY              64 69   50/ 17/ 23 1015.7R         5/ 5
WILMETTE HARBOR            58 58   30/ 21/ 29   N/A           7/ 5
HARRISON CRIB              64      20/ 26/ 30   N/A
BURNHAM HARBOR             59     340/ 20       N/A
CALUMET HARBOR             62      30/ 12/ 15 1015.1R
BURNS HARBOR               62      50/ 14/ 16 1015.6R
MICHIGAN CITY              60      20/  7/  8   N/A
MICHIGAN CITY 6N           63 66   50/ 16/ 21   N/A           4/ 5
ST. JOSEPH                 63 65   40/ 14/ 17 1015.4          3/ 3
$$

ILZ025>027-034>036-040-047-049-050-058-095>099-290000-
WEST-CENTRAL ILLINOIS

CITY           SKY/WX    TMP DP  RH WIND       PRES   REMARKS
QUINCY         CLOUDY    61  48  62 NW9       30.11R
GALESBURG*     PTCLDY    61  48  62 N10       30.09R
MACOMB*        CLOUDY    62  47  59 N10       30.11R
JACKSONVILLE*  CLOUDY    60  47  62 NW9G16    30.09R
PITTSFIELD*    CLOUDY    61  48  63 NW9       30.11S
$$

ILZ028>032-037-038-041>044-048-051>054-059>061-290000-
CENTRAL ILLINOIS

CITY           SKY/WX    TMP DP  RH WIND       PRES   REMARKS
PONTIAC        CLOUDY    61  48  62 NE8       30.04R
BLOOMINGTON    MOCLDY    58  49  72 NW12      30.04R
DECATUR        CLOUDY    58  49  72 NW14      30.04R
PEORIA         MOCLDY    60  50  69 N7        30.06R
LACON*         CLOUDY    60  47  60 N10G16    30.05R
LINCOLN*       CLOUDY    59  51  72 NW7       30.05R
SPRINGFIELD    CLOUDY    59  50  72 NW8       30.07R
TAYLORVILLE    CLOUDY    59  47  64 NW13G20   30.06R
$$

ILZ033-039-045-046-055>057-062-063-290000-
EAST-CENTRAL ILLINOIS

CITY           SKY/WX    TMP DP  RH WIND       PRES   REMARKS
CHAMPAIGN      CLOUDY    58  48  69 NW12      30.01R
RANTOUL*       CLOUDY    60  51  70 NE7       30.00R
MATTOON        CLOUDY    59  46  62 NW14      30.01R
PARIS*         CLOUDY    60  48  65 CALM      29.99R
$$

ILZ079-100>102-290000-
SOUTHWEST ILLINOIS

CITY           SKY/WX    TMP DP  RH WIND       PRES   REMARKS
BELLEVILLE     PTCLDY    62  47  57 N8        30.06R
CAHOKIA*       CLOUDY    64  45  49 N18G26    30.08R
SPARTA*        MOCLDY    61  46  56 N13G18    30.07R
$$

ILZ064>066-069>071-074>076-080>082-084>086-088>090-092>094-290000-
SOUTH-CENTRAL ILLINOIS

CITY           SKY/WX    TMP DP  RH WIND       PRES   REMARKS
CARBONDALE     MOCLDY    63  47  55 N13       30.04R
CAIRO*         PTCLDY    66  47  49 N14G21    30.02R
EFFINGHAM*     CLOUDY    60  48  64 NW13G21   30.04R
MARION         PTCLDY    63  46  55 N14       30.04R
MT. VERNON     CLOUDY    61  43  51 CALM      30.05R
CENTRALIA*     CLOUDY    62  48  61 NW12      30.04R
SALEM*         CLOUDY    62  46  56 NW10      30.05R
METROPOLIS*    CLEAR     65  47  50 NW10      30.01R
$$

ILZ067-068-072-073-078-083-087-091-290000-
SOUTHEAST ILLINOIS

CITY           SKY/WX    TMP DP  RH WIND       PRES   REMARKS
LAWRENCEVILLE  PTCLDY    62  45  53 NW15G23   29.99R
FLORA*         MOCLDY    62  47  56 NW7       30.03R
FAIRFIELD*     CLOUDY    61  46  58 NW5       30.02R
HARRISBURG*    PTCLDY    62  47  57 N9        30.03R
ROBINSON*      PTCLDY    60  46  60 NW13G22   30.00R
CARMI*         MOCLDY    61  46  57 NW14G25   30.02R
$$

ABBREVIATIONS USED IN REMARKS
   TC - TEMPERATURE IN CELSIUS
  WCI - WIND CHILL INDEX
   HX - HEAT INDEX
  VSB - VISIBILITY
$$





USA.gov is the U.S. government's official web portal to all federal, state and local government web resources and services.